Home   Weather   Beaumont   Past weeks

Flag for USA Past Weather in Beaumont, Texas, USA — Yesterday and Last 2 Weeks

Now
58 °F

Clear.


Feels Like: 58 °F
Forecast: 51 / 83 °F
Wind: No wind

Location: Jefferson County Airport

Current Time: Apr 30, 2017 at 9:48:10 pm

Latest Report: Apr 30, 2017 at 8:53 pm


Visibility: 10 mi

Pressure: 29.92 "Hg

Humidity: 78%

Dew Point: 51 °F

Location of BeaumontLocation

Past Weather in Beaumont — Graph

°F

Beaumont Temperature Yesterday

Maximum temperature yesterday: 85 °F (at 1:53 pm)
Minimum temperature yesterday: 78 °F (at 2:31 am)
Average temperature yesterday: 80 °F

High & Low Weather Summary for the Past Weeks

 TemperatureHumidityPressure
High88 °F (Apr 22, 12:53 pm)97% (Apr 20, 6:04 am)30.10 "Hg (Apr 20, 6:04 am)
Low53 °F (Apr 23, 5:53 am)29% (Apr 24, 3:53 pm)29.52 "Hg (Apr 26, 6:01 pm)
Average73 °F76%29.87 "Hg
* Reported Apr 15 7:53 pm — Apr 30 7:53 pm, Beaumont, Weather by CustomWeather, © 2017

Note: Actual official high and low records may vary slightly from our data, if they occured in-between our weather recording intervals... More about our weather records

Advertising

Beaumont Weather History for the Previous 24 Hours

Scroll right to see more
 ConditionsComfort  
Time TempWeatherWind HumidityBarometerVisibility
7:53 pm
Sun, Apr 30
65 °FClear.3 mph52%29.90 "Hg10 mi
6:53 pm72 °FSunny.7 mph41%29.89 "Hg10 mi
5:53 pm74 °FSunny.8 mph36%29.88 "Hg10 mi
4:53 pm75 °FSunny.9 mph34%29.88 "Hg10 mi
3:53 pm74 °FScattered clouds.7 mph43%29.89 "Hg10 mi
2:53 pm73 °FPartly sunny.10 mph43%29.90 "Hg10 mi
1:53 pm70 °FOvercast.9 mph49%29.91 "Hg10 mi
12:53 pm66 °FOvercast.9 mph56%29.91 "Hg10 mi
11:53 am66 °FOvercast.10 mph63%29.93 "Hg10 mi
10:53 am64 °FOvercast.10 mph61%29.89 "Hg10 mi
9:53 am63 °FOvercast.9 mph68%29.86 "Hg10 mi
8:53 am63 °FOvercast.7 mph68%29.82 "Hg10 mi
7:53 am61 °FMostly cloudy.12 mph72%29.83 "Hg10 mi
6:53 am61 °FOvercast.15 mph72%29.80 "Hg10 mi
5:53 am60 °FOvercast.10 mph80%29.79 "Hg10 mi
4:53 am59 °FLight rain. Mostly cloudy.13 mph87%29.76 "Hg10 mi
4:20 am60 °FStrong thunderstorms. Mostly cloudy.15 mph83%29.75 "Hg5 mi
3:53 am61 °FThundershowers. Mostly cloudy.21 mph83%29.72 "Hg10 mi
3:37 am64 °FLight rain. Low clouds.17 mph90%29.72 "Hg10 mi
2:53 am77 °FFog.9 mph94%29.69 "Hg5 mi
1:53 am77 °FFog.13 mph94%29.69 "Hg6 mi
1:26 am78 °FLight rain. Fog.13 mph90%29.71 "Hg5 mi
1:11 am78 °FThundershowers. Fog.14 mph90%29.72 "Hg6 mi
12:53 am78 °FLight rain. Mostly cloudy.14 mph90%29.72 "Hg7 mi
12:43 am78 °FLight rain. Overcast.15 mph87%29.73 "Hg7 mi
12:25 am79 °FThundershowers. Overcast.15 mph84%29.73 "Hg8 mi
12:00 am79 °FThunderstorms. Overcast.16 mph84%29.73 "Hg8 mi
10:53 pm
Sat, Apr 29
80 °FMostly cloudy.16 mph81%29.72 "Hg8 mi
10:01 pm80 °FMostly cloudy.22 mph81%29.70 "Hg8 mi
Weather by CustomWeather, © 2017

See weather overviewHow to use our weather pages